Temp
15 17 17 22 25 25 25 23 22 21 20 16 17 19 19 16 17 19 11 7 6 6 5 6 8 9 10 11 12 13 15 17 18 19 20 20 19 20 20 20 20 20 20 19 20 19 19 19 18
15 17 20 23 25 25 26 22 21 18 16 16 16 16 16 14 13 11 10 6 6 5 5 5 7 8 9 9 11 11 13 15 16 17 19 19 19 20 19 20 20 20 20 19 20 19 19 19 19
15 16 24 24 24 26 26 21 19 16 15 16 16 14 12 11 9 9 7 6 7 6 5 4 6 7 8 8 10 10 11 12 15 16 17 18 19 20 20 19 20 20 20 20 19 19 19 18 18
17 21 21 23 24 21 20 18 15 16 15 15 15 13 10 8 8 6 6 6 6 6 5 4 5 6 7 7 9 9 9 10 12 16 16 17 18 19 19 20 20 20 19 19 19 19 19 18 18
18 21 23 23 24 18 16 14 14 16 15 15 14 13 10 7 6 6 6 5 5 5 5 4 4 4 5 6 7 8 9 9 11 13 16 17 17 18 19 19 19 19 19 19 19 19 19 18 18
21 21 23 24 22 16 15 13 14 15 14 13 14 14 11 7 7 6 5 5 5 4 4 3 3 3 4 6 6 7 7 8 9 13 13 17 18 18 18 19 19 19 19 19 19 19 19 18 18
21 22 24 23 22 16 15 12 14 15 14 12 12 15 10 9 6 5 5 5 5 4 3 3 3 3 3 4 5 10 10 10 12 13 14 15 17 18 18 18 18 18 18 19 19 19 19 18 18
18 20 20 21 19 20 13 12 12 13 13 10 10 14 12 8 5 5 5 5 5 4 3 3 2 2 3 4 4 7 10 11 12 13 14 15 15 17 17 18 18 18 19 19 19 19 19 19 18
14 20 22 21 18 17 11 12 11 10 11 10 9 10 7 5 5 5 6 5 5 4 3 2 2 2 2 3 3 4 8 11 12 13 14 15 14 15 16 17 18 18 19 19 18 19 19 18 18
17 20 21 12 13 13 11 12 11 11 10 9 8 7 5 5 5 5 5 5 4 3 3 2 2 2 2 3 2 3 4 6 9 10 12 13 14 14 15 16 17 18 18 18 18 19 19 18 17
12 18 11 10 10 11 11 10 10 11 12 11 10 8 6 6 5 5 4 4 3 3 2 1 1 1 1 1 2 2 3 3 4 8 9 11 12 13 14 15 16 17 18 18 18 18 18 18 17
13 9 10 8 8 9 10 9 9 9 10 8 7 6 6 6 6 4 4 3 2 2 2 1 0 0 1 0 1 1 2 2 3 4 8 7 10 12 12 14 15 17 17 18 18 18 17 18 17
10 8 8 7 7 7 7 8 9 9 7 7 6 5 6 6 5 4 3 3 2 2 1 0 -0 -0 -0 -0 0 1 1 1 2 2 5 5 5 7 9 12 14 16 17 17 17 17 17 18 18
8 8 7 7 6 6 7 7 5 8 7 6 6 6 6 5 4 4 4 3 2 1 0 -0 -1 -1 -1 -1 -1 -1 0 1 1 2 2 4 4 4 8 10 13 15 17 18 16 16 17 17 18
8 8 7 7 6 6 5 6 6 7 6 6 6 6 6 5 4 4 2 2 1 1 -0 -1 -1 -1 -1 -2 -1 -1 -1 -0 0 1 1 2 3 3 3 8 10 14 16 17 16 16 17 17 17
10 10 12 7 6 6 6 14 7 6 6 7 7 6 6 6 4 3 2 1 1 0 -0 -1 -1 -2 -2 -2 -2 -2 -2 -1 -0 1 1 1 2 3 3 5 8 12 15 16 16 16 16 17 17
10 15 12 8 5 5 6 12 7 5 5 6 7 7 6 6 5 4 2 1 0 -0 -1 -1 -1 -2 -2 -3 -3 -2 -2 -2 -1 -0 1 1 1 2 2 3 6 9 12 15 16 15 15 17 17
12 11 9 11 5 5 7 7 6 5 6 6 8 8 7 6 6 3 1 0 -0 -1 -1 -1 -2 -2 -3 -3 -2 -2 -2 -1 -1 -1 -1 -0 1 1 2 2 4 6 10 15 16 15 15 16 17
6 7 8 7 4 4 8 7 7 8 6 6 7 8 7 7 6 3 1 0 -0 -0 -1 -2 -2 -3 -3 -3 -3 -2 -2 -3 -2 -2 -2 -1 -0 0 1 1 3 5 7 12 15 15 15 15 16
6 6 8 6 4 4 6 5 6 7 6 5 6 7 7 6 5 3 1 0 -1 -2 -2 -3 -3 -4 -4 -4 -4 -4 -4 -4 -3 -3 -3 -2 -1 0 1 2 3 4 6 11 15 15 15 14 15
5 5 5 5 4 3 3 9 7 2 2 1 3 3 4 4 5 5 1 -1 -3 -3 -3 -4 -5 -5 -4 -4 -4 -4 -4 -3 -2 -2 -1 -1 -1 -1 0 1 1 2 3 8 15 15 15 15 14
6 3 3 3 5 9 2 13 10 4 3 2 4 4 4 4 3 3 1 -2 -3 -4 -5 -5 -5 -6 -5 -5 -5 -5 -5 -5 -4 -3 -3 -3 -3 -2 -1 0 1 2 3 6 12 15 15 15 14
4 2 2 1 3 2 4 6 11 3 6 5 4 5 3 2 1 2 1 -3 -4 -5 -5 -6 -7 -6 -6 -6 -6 -6 -6 -5 -5 -5 -4 -4 -3 -2 -1 0 1 1 2 5 7 15 15 15 15
2 2 2 1 2 6 4 5 13 8 7 6 4 3 2 1 0 -0 -1 -2 -4 -6 -5 -6 -7 -7 -7 -7 -7 -7 -6 -6 -6 -5 -5 -4 -4 -3 -2 0 1 1 3 5 8 14 15 15 15
1 3 8 8 6 10 -0 3 9 5 3 5 5 4 2 -1 -1 -1 -1 -2 -3 -5 -6 -7 -7 -8 -7 -8 -8 -7 -7 -7 -6 -6 -5 -5 -4 -4 -3 0 1 1 3 4 8 14 14 14 14
1 1 7 10 11 9 -1 5 10 2 -0 1 -0 -1 -1 -1 -1 -2 -2 -3 -5 -6 -7 -8 -8 -8 -7 -8 -8 -8 -7 -7 -7 -6 -6 -5 -5 -4 -3 -2 -1 -0 3 3 8 13 14 14 14
-1 2 -3 2 -4 4 7 5 4 3 3 3 2 2 1 0 -1 -2 -3 -4 -5 -6 -7 -8 -8 -8 -8 -8 -9 -8 -7 -7 -7 -7 -6 -6 -5 -4 -3 -3 -1 0 2 2 6 13 14 14 14
-2 -4 3 2 7 8 8 4 10 5 6 4 3 3 2 -0 -1 -2 -3 -4 -6 -7 -7 -7 -8 -9 -8 -8 -9 -8 -8 -8 -7 -7 -6 -5 -5 -4 -3 -3 -1 -0 1 2 5 13 13 14 14
-2 0 -3 -1 1 7 8 11 5 6 6 5 4 3 0 -1 -2 -3 -4 -5 -7 -8 -8 -8 -8 -8 -8 -8 -9 -8 -8 -8 -7 -7 -6 -5 -5 -4 -3 -2 -1 0 1 4 7 13 13 14 14
-4 1 2 5 3 -3 -1 5 2 2 2 0 2 1 -0 -1 -3 -4 -5 -6 -7 -7 -8 -8 -8 -9 -8 -8 -9 -9 -8 -8 -8 -7 -6 -6 -5 -4 -3 -2 -0 1 2 4 10 13 13 14 14
Height
777 776 777 775 780 777 776 782 782 789 794 806 801 798 799 810 810 808 839 840 837 835 829 825 825 819 814 812 807 804 803 804 805 807 807 806 809 809 809 811 813 814 814 813 812 814 815 815 816
776 776 777 774 777 778 768 779 786 797 804 807 807 805 807 820 828 836 840 840 837 834 829 826 826 821 816 814 810 806 805 805 805 805 808 807 808 810 811 811 813 814 815 815 814 814 816 816 818
776 776 773 773 773 768 764 781 792 804 808 806 808 815 821 830 838 840 843 841 838 835 831 827 825 822 817 816 814 809 806 806 806 805 805 808 808 808 810 812 813 814 815 816 815 815 817 818 819
778 778 778 774 767 780 781 791 803 803 808 809 809 818 834 840 840 843 842 839 838 834 832 826 822 819 815 815 814 811 807 805 805 804 806 805 808 808 809 809 812 814 815 817 817 817 818 820 821
777 773 773 773 767 786 795 802 807 801 806 809 811 817 832 842 841 841 841 839 837 834 830 827 821 819 815 811 814 811 808 806 805 804 804 803 804 808 809 809 810 811 815 817 818 818 819 820 822
774 772 772 767 770 792 799 806 805 804 810 813 812 812 827 839 841 841 839 839 836 833 830 825 821 817 815 811 812 810 808 807 805 804 802 801 803 804 808 809 809 812 813 816 818 818 819 820 823
770 770 759 761 765 793 795 808 802 802 808 815 819 812 830 837 840 839 839 837 835 832 829 826 822 819 815 811 809 807 805 804 803 802 801 800 800 804 806 808 809 811 814 816 818 818 819 820 823
776 771 772 767 775 775 800 807 810 808 809 823 824 813 823 837 840 839 838 836 833 830 828 827 824 819 817 813 811 807 804 803 804 801 800 800 800 802 806 806 807 809 812 814 817 816 816 818 822
784 771 761 766 776 780 807 805 814 818 817 822 826 827 836 840 839 838 837 836 832 832 829 827 824 822 817 814 811 806 803 802 802 800 798 799 800 800 803 805 807 808 810 812 816 817 818 818 821
776 766 760 795 793 792 803 805 811 815 817 823 828 834 837 837 838 837 836 835 834 832 829 825 822 821 818 816 812 808 805 801 802 800 800 796 798 798 799 801 804 805 808 811 814 817 818 820 822
791 769 796 804 804 802 805 809 814 810 809 814 820 829 834 835 835 835 834 834 834 832 830 825 823 821 818 815 812 810 807 804 802 801 800 795 796 796 797 798 802 803 806 809 811 815 817 819 821
789 807 804 809 812 810 808 812 813 815 814 822 826 830 832 831 832 833 833 833 832 830 829 826 822 820 818 814 812 810 808 805 803 801 801 797 795 793 794 794 797 801 803 806 808 811 814 816 819
794 807 812 815 817 816 818 815 814 815 822 825 828 829 828 829 830 831 831 832 831 829 828 826 823 821 820 817 814 811 808 805 802 800 800 797 796 793 792 792 793 792 799 803 803 806 810 814 816
804 807 815 818 821 822 818 817 822 813 820 822 824 823 824 826 828 829 829 830 830 828 827 825 822 820 818 816 813 811 808 808 803 799 796 793 794 790 789 788 788 788 792 794 799 801 805 809 813
808 809 814 817 820 821 825 816 813 815 819 819 821 822 823 825 828 828 829 829 829 827 825 822 818 816 815 812 810 807 804 800 797 795 793 792 792 787 788 784 782 781 783 785 796 796 800 803 809
800 798 785 815 818 821 819 773 808 815 817 816 818 820 820 822 826 826 827 825 825 823 821 818 816 816 814 811 808 805 801 798 794 792 791 790 787 785 785 781 778 778 779 783 789 784 790 796 803
797 765 778 806 821 819 816 781 806 815 817 815 813 815 816 815 819 823 824 823 820 821 819 816 815 815 812 808 804 801 797 794 792 789 786 784 782 780 781 777 773 773 773 777 780 784 781 790 797
774 781 799 785 817 816 808 798 804 810 810 809 809 809 809 810 815 820 820 819 818 819 817 816 815 813 810 805 801 796 792 790 787 784 782 781 779 779 777 771 768 767 764 768 771 775 779 787 792
811 806 801 807 825 818 794 795 795 797 801 804 804 802 802 805 811 814 815 815 817 817 816 816 814 811 807 802 798 792 789 785 782 780 777 775 774 771 769 766 764 760 759 758 762 766 769 782 789
814 808 797 812 823 822 806 799 791 789 792 799 801 799 801 804 808 809 812 814 816 816 816 814 811 807 802 798 793 789 784 780 778 775 771 769 767 765 763 762 759 755 752 749 752 756 761 773 780
816 812 812 814 818 822 816 767 778 801 803 805 803 803 806 806 804 804 809 811 813 814 813 810 806 802 798 794 790 785 782 777 773 770 766 764 762 761 759 756 752 747 746 739 736 739 752 759 771
807 828 830 828 816 780 826 743 758 789 794 800 795 799 800 802 802 804 807 809 810 809 808 805 802 798 793 791 787 784 780 775 771 767 762 758 755 752 750 746 743 737 733 736 729 730 740 748 756
823 833 832 838 826 832 814 796 739 791 780 784 791 792 798 800 802 803 806 807 806 805 802 799 796 792 791 787 784 781 776 772 765 762 756 751 746 743 742 738 735 729 726 721 731 720 728 736 743
834 832 833 836 832 798 812 806 727 762 767 776 788 793 797 800 802 804 804 804 802 800 796 794 791 789 785 781 779 776 771 765 760 754 749 743 739 735 732 730 726 722 719 719 710 706 715 725 736
835 825 778 774 792 756 837 819 749 773 783 777 783 789 796 800 801 800 800 800 798 795 793 790 789 785 781 778 775 771 765 759 752 746 741 736 730 726 721 720 716 712 711 709 712 698 703 714 725
839 834 792 760 747 761 840 787 738 784 793 792 794 797 797 796 796 796 796 795 794 792 789 787 785 780 777 774 769 764 757 751 744 738 733 727 722 717 713 709 704 699 692 692 690 695 694 704 716
845 833 857 833 872 812 771 781 772 776 780 783 785 788 789 790 791 791 791 791 790 787 785 784 781 777 773 769 764 757 750 744 737 730 724 718 712 707 704 699 694 687 687 689 685 680 688 695 707
849 861 823 827 784 763 754 788 728 764 763 772 780 782 784 786 787 788 786 785 785 783 781 779 777 773 769 764 758 751 744 736 729 722 714 708 702 697 693 688 686 683 682 683 678 669 683 690 697
852 838 855 845 831 770 761 725 761 754 758 766 771 776 782 784 783 782 781 781 780 779 778 776 773 769 764 759 752 745 737 728 721 714 706 698 692 687 683 677 670 668 663 658 662 662 671 681 691
852 828 821 797 808 850 835 772 766 768 771 777 773 777 779 779 780 779 778 777 777 777 775 773 769 766 761 754 748 740 731 722 714 706 697 688 682 676 673 670 665 663 663 656 653 656 663 673 682
Wind_Speed
6 2 1 3 5 4 6 7 2 6 4 4 2 3 8 11 5 3 7 18 20 20 22 24 29 31 31 31 31 28 21 13 6 6 8 10 11 10 9 9 8 8 7 9 11 15 15 15 15
2 1 1 1 5 8 6 5 8 5 3 1 3 2 6 6 7 6 3 19 17 17 20 22 26 28 29 30 29 28 27 18 11 9 9 10 11 10 10 10 10 9 10 10 12 15 16 16 15
2 0 4 4 4 10 4 8 8 4 3 1 4 7 3 4 8 4 9 14 16 16 19 20 25 26 26 27 27 27 25 24 9 7 4 12 12 12 12 12 11 12 12 13 14 15 15 16 15
3 4 2 6 11 3 1 9 5 7 3 4 3 8 6 7 4 6 10 13 15 17 18 20 24 26 27 26 25 27 26 24 21 4 6 6 15 15 14 15 15 14 13 14 15 16 15 16 16
2 1 4 6 9 2 5 5 4 7 5 4 4 7 8 6 7 8 10 12 15 16 19 19 22 25 26 25 24 25 26 24 20 14 4 8 8 15 16 16 17 17 16 16 14 17 18 17 16
4 2 6 13 8 4 4 3 5 5 3 5 4 9 6 10 7 10 10 10 13 16 18 20 22 24 25 25 23 24 24 23 22 16 11 10 13 13 17 17 18 18 20 19 18 19 19 18 17
4 5 10 6 10 7 7 5 5 5 5 4 2 6 6 6 9 10 9 10 12 14 16 19 21 23 24 23 23 25 23 23 19 19 13 8 13 14 15 17 18 20 20 19 22 22 20 19 18
2 3 4 6 8 6 9 8 3 3 5 5 1 4 6 3 8 9 8 11 13 16 17 19 20 22 24 22 22 25 21 21 20 18 17 11 11 13 15 17 18 19 22 22 25 26 24 22 21
1 5 10 7 8 6 9 8 4 2 5 3 3 4 6 3 6 8 10 12 14 16 18 19 20 21 23 21 23 24 24 21 20 18 15 13 11 10 14 14 18 20 22 24 26 26 24 24 22
4 6 6 2 3 6 10 6 8 5 6 4 7 6 4 4 6 9 12 13 15 17 18 20 22 22 22 21 22 22 22 21 20 21 19 15 14 14 14 20 18 22 22 24 26 25 23 24 21
3 3 7 4 6 7 8 6 3 4 7 4 6 4 2 3 5 7 10 12 14 15 17 19 20 21 21 21 21 20 21 20 20 20 21 19 17 16 13 16 16 18 22 27 27 25 26 24 21
4 4 2 6 4 3 5 3 3 5 3 4 4 3 1 3 5 7 9 10 13 15 17 18 20 21 21 22 19 20 20 20 18 20 21 20 20 16 17 15 18 18 18 30 31 29 29 23 23
6 7 6 7 6 5 2 4 3 6 6 4 4 2 1 2 4 5 6 8 11 14 16 18 18 18 19 19 19 19 19 18 20 19 20 20 20 19 17 17 16 24 25 29 33 30 29 24 23
5 10 10 5 3 3 1 2 1 4 8 6 3 3 2 3 4 5 6 9 12 14 16 17 18 18 19 18 18 19 18 18 18 19 19 21 22 21 22 20 21 20 31 31 29 32 31 25 23
12 7 5 3 1 2 1 5 8 7 9 6 5 5 5 4 4 4 5 8 11 12 15 18 18 19 20 20 20 19 19 21 20 19 20 21 21 22 22 25 23 16 35 36 37 33 32 26 23
4 4 6 4 1 3 3 2 6 10 9 7 6 7 7 6 6 4 4 7 10 14 16 18 19 19 19 20 20 19 19 19 20 20 20 20 21 20 24 27 26 23 28 34 39 35 34 28 26
4 3 6 5 1 2 4 2 9 10 8 8 7 7 7 6 6 5 4 7 11 14 17 19 20 20 20 20 20 19 18 19 20 20 21 20 20 21 23 28 27 31 21 42 37 31 30 29 28
3 4 3 3 2 2 10 14 8 11 10 14 13 9 7 7 8 6 4 7 11 14 16 17 18 19 20 20 19 20 20 18 18 20 22 22 22 22 23 28 35 30 29 36 40 38 30 29 30
4 1 2 1 1 5 8 14 12 13 14 12 12 9 7 9 7 6 4 7 10 14 16 17 18 19 19 19 20 21 20 21 22 22 24 25 25 25 24 28 35 39 35 24 42 39 41 30 30
1 1 2 1 1 5 7 21 17 15 14 13 12 9 8 8 9 7 7 7 10 14 15 16 17 18 19 19 21 21 24 24 25 26 27 26 27 26 25 27 30 33 31 26 47 41 34 31 35
2 2 1 3 8 2 11 9 3 3 6 8 9 7 9 10 9 8 7 9 11 13 14 15 16 18 18 19 21 22 23 25 25 24 25 24 24 26 27 29 33 37 28 33 48 48 46 35 35
3 2 2 5 6 4 5 5 3 3 5 8 8 9 9 8 8 9 9 10 12 14 13 14 15 17 18 18 20 22 25 27 27 28 30 31 29 30 29 30 32 35 37 38 29 49 46 40 36
2 1 2 1 1 4 4 5 2 2 7 9 8 6 5 4 5 7 8 11 15 14 15 14 15 17 18 17 19 23 25 26 29 29 31 32 31 30 30 30 31 34 35 35 41 52 50 46 45
5 1 1 2 0 4 3 3 3 6 6 8 3 4 3 3 5 9 12 13 14 13 15 15 16 18 19 19 21 23 26 29 29 29 30 30 30 29 29 29 30 32 31 37 34 47 48 46 44
2 3 2 2 2 3 2 3 8 2 4 5 5 4 3 5 7 9 9 12 13 13 15 15 16 20 21 21 22 23 25 28 31 32 29 30 29 27 28 27 28 30 32 29 40 39 49 48 44
1 2 3 5 3 2 3 7 2 1 2 5 6 7 9 8 7 8 9 11 13 12 13 15 17 21 23 23 23 24 25 27 28 30 31 32 30 31 30 30 30 30 33 39 29 42 44 47 45
4 3 2 1 1 3 2 6 9 7 8 7 8 6 7 6 6 8 10 11 12 11 13 14 18 21 23 22 24 25 25 26 29 31 32 33 32 33 32 32 31 25 30 36 33 41 44 43 46
2 3 2 2 4 5 3 5 3 5 9 7 7 8 5 6 7 8 9 10 10 10 13 15 16 17 21 23 24 25 27 26 28 30 31 31 32 32 31 33 30 28 28 37 34 41 49 44 44
4 3 0 2 2 3 4 3 6 8 8 10 8 5 6 8 9 8 8 9 9 10 12 14 16 18 23 25 25 28 27 27 28 27 26 27 27 28 29 30 27 23 30 28 32 36 45 47 46
2 2 5 4 5 1 3 8 3 7 5 3 5 6 7 7 8 8 10 9 8 8 10 13 15 17 20 25 26 27 27 30 27 25 24 24 25 26 27 24 20 25 23 31 24 35 44 48 47
Wind_Direction
325 111 153 204 207 235 219 178 144 137 121 20 42 342 85 41 18 70 125 9 356 353 353 5 2 7 12 14 17 19 29 29 353 270 235 221 208 197 184 186 196 191 190 167 164 151 148 147 139
306 125 108 159 238 215 196 160 165 104 64 167 82 78 35 83 54 89 114 350 354 351 357 4 3 8 10 13 17 18 19 24 24 3 256 232 218 216 213 200 206 209 203 193 167 159 160 153 144
121 187 199 207 227 227 201 172 136 116 72 146 127 40 55 81 60 57 357 348 355 357 355 5 3 8 11 11 14 17 17 14 19 6 345 261 245 224 221 216 217 218 213 198 176 161 161 149 145
180 179 132 230 216 181 146 150 128 148 152 69 107 87 94 37 78 16 355 358 357 358 356 359 4 6 10 9 9 14 14 12 8 349 341 307 256 240 231 222 223 224 216 206 181 173 165 156 150
144 207 214 236 218 144 156 141 156 161 129 104 188 138 116 97 59 22 6 2 2 357 356 357 3 3 5 9 5 7 11 10 3 359 256 245 258 257 241 233 227 215 212 209 197 182 172 165 159
178 260 213 222 202 165 184 166 176 167 144 108 120 133 120 125 30 13 7 6 5 360 359 358 1 2 2 6 2 5 4 5 4 355 349 237 239 239 245 239 231 221 214 214 206 189 180 169 167
244 214 236 237 192 184 190 168 204 155 141 99 87 144 116 156 14 7 7 6 8 9 8 4 1 359 358 1 359 358 1 1 1 1 338 304 230 242 239 244 238 226 222 215 206 191 183 174 173
266 253 211 222 194 182 149 165 143 200 126 110 2 163 145 47 6 4 5 10 12 11 13 7 3 1 356 357 352 352 353 354 355 349 346 329 245 235 244 238 241 235 226 220 208 196 188 180 176
249 232 233 215 181 137 151 170 158 62 147 103 93 80 93 45 11 10 10 9 9 9 11 7 4 0 357 356 347 348 345 344 342 341 336 331 321 271 247 248 240 240 230 221 210 202 196 184 177
237 229 226 25 85 157 153 181 157 180 166 148 133 118 87 47 21 17 13 7 7 5 6 4 1 359 358 353 349 347 343 341 338 334 328 324 311 314 265 245 242 231 233 221 211 207 198 182 176
20 276 136 104 96 131 144 155 155 190 208 170 157 143 100 33 24 15 12 11 3 359 360 1 359 355 354 351 348 344 341 337 332 328 321 316 311 295 286 262 257 238 233 223 213 209 198 184 179
140 82 126 137 111 128 151 122 189 224 97 113 123 116 38 12 13 11 6 2 359 357 355 355 356 352 349 346 343 338 334 331 328 321 316 315 304 294 286 270 248 244 243 225 213 206 198 192 186
115 134 98 106 104 94 148 194 252 221 165 153 150 177 330 344 358 4 1 355 352 354 350 349 349 347 341 339 333 330 326 323 317 316 309 308 301 295 283 272 249 233 236 229 210 201 197 197 188
120 128 122 124 102 77 228 212 259 194 170 172 216 268 289 313 333 338 352 348 348 346 345 342 342 340 335 332 327 322 317 311 308 305 304 302 294 291 289 274 261 238 225 229 208 194 191 191 192
133 118 136 152 112 157 2 221 226 160 171 186 228 263 267 275 274 313 335 337 339 340 339 339 340 336 333 330 325 320 313 311 306 299 297 294 289 286 284 274 263 253 217 215 215 198 189 186 190
165 193 189 144 215 169 243 184 163 164 181 202 237 246 245 245 254 281 319 333 337 339 341 338 336 331 326 323 319 314 309 306 301 297 292 287 286 283 281 280 265 247 229 209 209 193 188 184 188
190 226 214 162 189 264 230 236 161 177 203 233 260 243 249 260 252 255 309 332 342 337 335 333 330 324 321 318 316 312 307 302 297 293 289 285 282 281 274 270 264 251 255 210 206 199 191 186 189
189 216 203 214 73 288 247 257 181 196 236 253 260 247 250 259 256 248 301 338 338 333 328 323 318 315 316 314 314 313 310 303 296 290 285 283 281 277 275 273 263 260 256 214 206 203 199 192 189
92 98 305 122 105 304 277 268 249 233 233 241 234 237 245 252 260 241 285 331 330 330 322 312 310 312 316 313 316 316 309 303 296 291 285 282 278 275 272 273 270 260 255 247 206 197 187 193 185
82 198 221 176 104 304 292 280 274 252 229 221 227 233 245 251 246 240 258 306 325 323 309 306 307 309 315 314 315 311 307 301 294 290 285 282 278 274 270 267 267 268 265 268 209 193 182 185 181
36 339 354 317 315 242 306 263 196 161 197 217 221 233 252 254 272 273 259 301 319 311 305 303 304 308 311 313 312 309 301 296 293 290 287 281 276 271 269 264 267 264 267 258 201 194 191 183 181
267 69 66 336 333 282 2 287 167 132 174 201 203 218 245 257 264 269 266 293 300 300 299 300 304 308 313 309 309 304 295 291 288 288 285 282 277 274 269 264 264 264 264 255 249 189 188 182 178
67 30 29 72 346 321 169 239 252 147 191 193 213 219 233 268 273 259 253 278 291 294 305 309 306 310 307 307 306 297 288 284 287 284 282 280 278 272 268 260 259 260 260 259 262 191 189 185 182
132 195 82 104 158 242 99 259 234 180 189 162 182 221 237 275 255 255 267 278 278 293 315 315 315 308 312 310 303 293 289 287 284 282 280 278 277 273 266 257 254 254 257 257 253 199 188 185 187
199 255 273 231 194 273 139 218 274 254 197 141 167 223 248 271 268 263 271 273 282 302 313 315 312 307 314 309 300 295 290 286 282 280 275 274 272 269 266 257 257 253 247 252 242 206 181 184 188
81 326 288 281 279 3 157 232 238 225 282 257 262 263 283 276 260 251 267 275 280 292 309 310 308 309 314 310 303 300 295 289 282 277 273 269 267 266 265 265 264 263 266 256 244 211 188 184 190
136 206 39 69 123 263 255 263 264 234 241 227 256 248 259 271 277 262 276 269 277 288 304 303 305 309 313 311 305 304 302 294 286 279 273 269 266 265 264 263 263 267 265 260 258 195 191 189 189
294 102 172 194 268 258 228 268 247 176 206 204 221 235 260 286 280 265 268 274 273 293 302 306 307 305 312 316 310 307 304 299 291 283 275 269 267 264 263 263 259 262 259 257 259 196 192 191 191
149 204 73 322 261 273 299 263 195 192 173 187 207 219 275 283 280 278 275 271 281 294 304 306 310 316 325 328 318 316 310 311 299 288 280 274 270 264 260 258 263 265 265 263 269 196 189 191 191
333 270 213 239 178 215 312 270 160 227 221 233 245 262 283 269 277 277 274 275 281 288 301 305 314 318 326 332 325 322 316 321 306 300 295 290 278 267 254 249 255 255 249 263 265 199 193 192 191